N9WFD Weather Reports


Display with metric or nautical units.
time (UTC)temp
F
wind
direction
speed
MPH
gust
MPH
rain 1hr
in
rain 24hr
in
rain mn
in
humidity
%
barometer
mb
20260506231540 51 72 8.0 18.0 0.00 0.00 0.00 43 1013.3
20260506230038 52 27 5.0 16.0 0.00 0.00 0.00 43 1013.2
20260506224538 52 52 7.0 18.0 0.00 0.00 0.00 42 1013.1
20260506223008 52 10 10.0 19.0 0.00 0.00 0.00 42 1013.0
20260506221610 52 46 8.0 15.0 0.00 0.00 0.00 42 1012.9
20260506220003 52 69 5.0 16.0 0.00 0.00 0.00 43 1012.8
20260506214503 52 75 10.0 18.0 0.00 0.00 0.00 42 1012.7
20260506213001 53 47 8.0 16.0 0.00 0.00 0.00 41 1012.8
20260506211501 54 39 9.0 19.0 0.00 0.00 0.00 41 1012.6
20260506210051 53 53 8.0 16.0 0.00 0.00 0.00 42 1012.6
20260506204550 54 34 7.0 17.0 0.00 0.00 0.00 40 1012.5
20260506203052 54 83 9.0 13.0 0.00 0.00 0.00 39 1012.5
20260506201607 54 65 7.0 19.0 0.00 0.00 0.00 39 1012.6
20260506200048 54 79 10.0 16.0 0.00 0.00 0.00 38 1012.7
20260506194552 54 15 9.0 19.0 0.00 0.00 0.00 37 1012.8
20260506193051 54 4 7.0 17.0 0.00 0.00 0.00 39 1012.9
20260506191546 54 16 9.0 15.0 0.00 0.00 0.00 37 1012.7
20260506190046 54 46 11.0 20.0 0.00 0.00 0.00 39 1012.9
20260506184551 54 11 10.0 16.0 0.00 0.00 0.00 39 1013.0
20260506183044 53 44 11.0 18.0 0.00 0.00 0.00 39 1012.9
20260506181544 53 19 8.0 17.0 0.00 0.00 0.00 40 1013.0
20260506180052 53 82 7.0 19.0 0.00 0.00 0.00 39 1012.9
20260506174551 53 335 10.0 20.0 0.00 0.00 0.00 38 1013.1
20260506173112 53 42 7.0 17.0 0.00 0.00 0.00 38 1012.9
20260506171556 53 91 10.0 19.0 0.00 0.00 0.00 37 1013.1
20260506170050 53 67 7.0 19.0 0.00 0.00 0.00 39 1013.4
20260506164546 53 29 8.0 15.0 0.00 0.00 0.00 38 1013.4
20260506163059 53 100 10.0 17.0 0.00 0.00 0.00 38 1013.3
20260506161544 52 30 9.0 17.0 0.00 0.00 0.00 39 1013.4
20260506160042 51 50 10.0 21.0 0.00 0.00 0.00 39 1013.4
20260506154508 52 48 10.0 19.0 0.00 0.00 0.00 41 1013.4
20260506153004 51 347 9.0 15.0 0.00 0.00 0.00 43 1013.3
20260506151502 50 39 7.0 12.0 0.00 0.00 0.00 46 1013.4
20260506150003 50 13 8.0 12.0 0.00 0.00 0.00 45 1013.6
20260506144601 50 359 6.0 14.0 0.00 0.00 0.00 49 1013.6
20260506143057 49 36 8.0 13.0 0.00 0.00 0.00 48 1013.6
20260506141556 49 52 8.0 12.0 0.00 0.00 0.00 48 1013.5
20260506140100 49 352 7.0 12.0 0.00 0.00 0.00 46 1013.5
20260506134548 48 356 3.0 8.0 0.00 0.00 0.00 52 1013.3
20260506133044 48 331 2.0 6.0 0.00 0.00 0.00 53 1013.1
20260506131539 47 334 1.0 7.0 0.00 0.00 0.00 57 1013.0
20260506130036 46 314 1.0 4.0 0.00 0.00 0.00 65 1013.0
20260506124532 45 308 2.0 5.0 0.00 0.00 0.00 68 1012.8
20260506123030 44 213 1.0 3.0 0.00 0.00 0.00 73 1012.7
20260506121523 43 163 0.0 0.0 0.00 0.00 0.00 80 1012.3
20260506120025 42 163 0.0 0.0 0.00 0.00 0.00 85 1012.1
20260506114519 39 163 0.0 0.0 0.00 0.00 0.00 86 1012.2
20260506113019 38 163 0.0 0.0 0.00 0.00 0.00 85 1012.3
20260506111513 37 163 0.0 0.0 0.00 0.00 0.00 84 1012.2
20260506110013 37 163 0.0 0.0 0.00 0.00 0.00 83 1012.0
20260506104510 37 163 0.0 0.0 0.00 0.00 0.00 81 1011.8
20260506103011 37 163 0.0 0.0 0.00 0.00 0.00 80 1011.3
20260506101504 37 163 0.0 0.0 0.00 0.00 0.00 79 1011.3
20260506100003 37 163 0.0 0.0 0.00 0.00 0.00 78 1011.3
20260506094503 37 163 0.0 0.0 0.00 0.00 0.00 78 1011.3
20260506093003 37 163 0.0 0.0 0.00 0.00 0.00 77 1011.3
20260506091558 38 163 0.0 0.0 0.00 0.00 0.00 76 1011.3
20260506090108 38 163 0.0 0.0 0.00 0.00 0.00 75 1011.5
20260506084555 38 163 0.0 0.0 0.00 0.00 0.00 73 1011.3
20260506083053 39 163 0.0 0.0 0.00 0.00 0.00 72 1011.3
20260506081517 40 163 0.0 0.0 0.00 0.00 0.00 70 1011.1
20260506073010 43 163 0.0 1.0 0.00 0.00 0.00 62 1010.8
20260506071507 44 163 0.0 0.0 0.00 0.00 0.00 58 1010.6
20260506061601 46 163 0.0 4.0 0.00 0.00 0.00 53 1010.9
20260506044534 48 94 0.0 3.0 0.00 0.00 0.00 50 1010.4
20260506043034 48 94 0.0 1.0 0.00 0.00 0.00 50 1010.3
20260506041535 49 94 0.0 2.0 0.00 0.00 0.00 48 1010.2
20260506040030 50 94 0.0 2.0 0.00 0.00 0.00 46 1010.0
20260506034529 50 94 0.0 3.0 0.00 0.00 0.00 45 1010.0
20260506033025 50 95 1.0 5.0 0.00 0.00 0.00 45 1009.6
20260506031525 51 131 0.0 4.0 0.00 0.00 0.00 45 1009.5
20260506030025 51 104 0.0 4.0 0.00 0.00 0.00 45 1009.5
20260506024524 51 90 2.0 8.0 0.00 0.00 0.00 45 1009.6
20260506023056 52 87 3.0 9.0 0.00 0.00 0.00 45 1009.3
20260506021550 52 62 1.0 3.0 0.00 0.00 0.00 46 1009.1
20260506020030 52 61 0.0 4.0 0.00 0.00 0.00 44 1008.7
20260506014515 52 63 1.0 6.0 0.00 0.00 0.00 44 1008.3
20260506013011 52 57 1.0 3.0 0.00 0.00 0.00 44 1008.1
20260506011511 53 57 1.0 2.0 0.00 0.00 0.00 43 1008.2
20260506010012 53 57 0.0 3.0 0.00 0.00 0.00 41 1007.7
20260506004520 54 79 1.0 6.0 0.00 0.00 0.00 40 1007.6
20260506003008 54 73 3.0 8.0 0.00 0.00 0.00 39 1007.5
20260506001507 54 59 5.0 11.0 0.00 0.00 0.00 38 1007.5
20260506000006 54 97 3.0 12.0 0.00 0.00 0.00 39 1007.6
20260505234506 55 82 2.0 7.0 0.00 0.00 0.00 40 1007.5
20260505233004 55 54 2.0 9.0 0.00 0.00 0.00 39 1007.5